Regional Weather Roundup
Issued by NWS

Home | Current Version | Previous Version | Graphics & Text | Print | Product List | Glossary On
Versions: 1 2 3 4 5 6 7 8 9 10 11 12 13 14 15 16 17 18 19 20 21 22 23 24 25 26 27 28 29 30 31 32 33 34 35 36 37 38 39 40 41 42 43 44 45 46 47 48 49 50
000
ASUS44 KMEG 230910
RWRTN
TENNESSEE HOURLY STATE WEATHER ROUNDUP
NATIONAL WEATHER SERVICE MEMPHIS TN
300 AM CST THU FEB 23 2017

TNZ002-004-019-021-049-052-054-088>092-231000-
WEST TENNESSEE

CITY           SKY/WX    TMP DP  RH WIND       PRES   REMARKS
MEMPHIS INTL   CLEAR     56  54  93 S6        29.79F
NWS MEMPHIS      N/A     55 N/A N/A MISG        N/A
JACKSON        CLOUDY    54  53  97 CALM      29.81F
UNION CITY     CLEAR    N/A N/A N/A CALM      29.79S
PARIS          CLOUDY    55  54  94 CALM      29.81S
HUNTINGDON     CLOUDY    57  55  94 S3        29.79F
$$

TNZ008-025-027-028-033-062-065-066-231000-
NORTH MIDDLE TENNESSEE

CITY           SKY/WX    TMP DP  RH WIND       PRES   REMARKS
NASHVILLE      CLEAR     53  52  96 S5        29.84S FOG
PORTLAND       CLEAR     55  55 100 S8        29.83F
CLARKSVILLE    CLEAR     55  53  93 S5        29.80F
SMYRNA         FOG       50  50 100 CALM      29.85F VSB 1/4
COOKEVILLE     MOCLDY    55  54  94 S5        29.85S
GALLATIN       FOG       50  50 100 CALM      29.87S VSB 1/4
CROSSVILLE     PTCLDY    51  51 100 CALM      29.88F FOG
$$

TNZ061-075-076-078-094-096-097-231000-
SOUTH MIDDLE TENNESSEE

CITY           SKY/WX    TMP DP  RH WIND       PRES   REMARKS
FAYETTEVILLE   CLEAR     57  55  94 SE8       29.85S
TULLAHOMA      CLEAR     46  45  93 CALM      29.86F
WINCHESTER     MOCLDY    57  55  94 S7        29.87S
MCMINNVILLE    CLOUDY    46  46 100 CALM      29.86S VSB 1/4
COLUMBIA       MOCLDY   N/A N/A N/A CALM      29.82F VSB 1/2
SHELBYVILLE    CLEAR     57  57 100 SE5       29.86R
$$

TNZ017-018-042-046-047-231000-
NORTHEAST TENNESSEE

CITY           SKY/WX    TMP DP  RH WIND       PRES   REMARKS
TRI CITIES     FOG       46  45  96 CALM      29.90S VSB 1/16
ELIZABETHTON     N/A     48  48 100 CALM      29.90S
$$

TNZ012-013-036-069-073-074-231000-
CENTRAL EAST TENNESSEE

CITY           SKY/WX    TMP DP  RH WIND       PRES   REMARKS
KNOXVILLE      FOG       54  53  97 NE5       29.88S VSB 1/8
OAK RIDGE      FOG       52  50  93 CALM      29.89F VSB 1/4
GATLINBURG     CLOUDY    50  50 100 CALM      29.88S VSB 1/4
MORRISTOWN     FOG       50  50 100 CALM      29.88S VSB 0
JACKSBORO      CLOUDY    54  54 100 CALM      29.91S FOG
$$

TNZ083-085-099-231000-
SOUTHEAST TENNESSEE

CITY           SKY/WX    TMP DP  RH WIND       PRES   REMARKS
CHATTANOOGA    FOG       52  51  97 W3        29.88S VSB 1/4
$$

SKY/WX REPORTED AS FAIR MEANS FEW OR NO CLOUDS BELOW
12 THOUSAND FEET.




USA.gov is the U.S. government's official web portal to all federal, state and local government web resources and services.